Weather in Port Pirie

Australia     33°11′08″S   138°00′36″E
temp.,
°C
wind,
m/s
gust,
m/s
humid.,
%
clouds,
%
prec.,
mm/h
press.,
hPa
HPBL,
m
3 march, wed
wed301:30+22ese592794 0.0 1016320
04:30+21se232997 0.0 1016138
07:30+19ene363961 0.0 1017218
10:30+25e222530 0.0 1019657
13:30+29wsw22220 0.0 10181656
16:30+27sw77310 0.0 1015793
19:30+26s59290 0.0 1016438
22:30+21sse610400 0.0 1019272
4 march, thu
thu401:30+19se47350 0.0 1018162
04:30+17se46410 0.0 1018113
07:30+16ese34470 0.0 101973
10:30+23nnw12270 0.0 1019587
13:30+28sw54200 0.0 10181304
16:30+26sw78290 0.0 1015490
19:30+24ssw69360 0.0 1016378
22:30+19se49390 0.0 1018235
5 march, fri
fri501:30+18sse34570 0.0 101776
04:30+17se34500 0.0 101668
07:30+16ese33470 0.0 101753
10:30+24ene12270 0.0 1017545
13:30+29wsw43210 0.0 10151374
16:30+26sw88360 0.0 1013494
19:30+24ssw59430 0.0 1013423
22:30+19sse49658 0.0 1016301
6 march, sat
sat601:30+18se356657 0.0 1014107
04:30+17se346670 0.0 101390
07:30+17ese236577 0.0 101461
10:30+24nne123650 0.0 1014586
13:30+28w533115 0.0 10121121
16:30+28sw543216 0.0 1010837
19:30+23s474513 0.0 1010220
22:30+21se354552 0.0 1012135
7 march, sun
sun701:30+22ene1137100 0.0 101132
04:30+20ne114488 0.0 100925
07:30+19ene114357 0.0 101024
10:30+26wnw332932 0.0 1010516
13:30+27w443370 0.0 1009647
16:30+28ssw333166 0.0 1007505
19:30+23ssw354830 0.0 1008184
22:30+22ssw465849 0.0 1010198